Location: Chuathbaluk
(61.5726°N, 159.2454°W)
Time: 22:47:19
(UTC+00:00)

Transit 4A - Pass Details

Date: 26 November 2020
Orbit: 864 x 981 km, 66.8° (Epoch: 19 January)

Event Time Altitude Azimuth Distance (km) Brightness Sun altitude
Rises 02:28:59 0° 306° (NW) 3,695 11.3 -5.8°
Reaches altitude 10° 02:31:34 10° 305° (NW) 2,744 10.7 -6.0°
Maximum altitude 02:38:00 80° 221° (SW) 996 8.2 -6.7°
Drops below altitude 10° 02:44:19 10° 135° (SE) 2,692 10.2 -7.3°
Sets 02:46:50 0° 134° (SE) 3,621 10.8 -7.6°
